Weather Roundup
Issued by NWS

Home | Current Version | Previous Version | Text Only | Print | Product List | Glossary On
Versions: 1 2 3 4 5 6 7 8 9 10 11 12 13 14 15 16 17 18 19 20 21 22 23 24 25 26 27 28 29 30 31 32 33 34 35 36 37 38 39 40 41 42 43 44 45 46 47 48 49 50
000
NZUS93 KARX 221010
HRRWXR

CURRENT HOURLY OBSERVATIONS ACROSS
MUCH OF THE UPPER MISSISSIPPI VALLEY
NATIONAL WEATHER SERVICE LA CROSSE WI
500 AM CDT FRI AUG 22 2014


...SOUTHEAST MINNESOTA...


CITY           SKY/WX    TMP DP  RH WIND       PRES   REMARKS
ROCHESTER      PTCLDY    71  69  93 W3        29.90S FOG
ROCHESTER/MAYO FAIR      72  71  96 CALM      29.89F
WINONA         MOCLDY    73  72  94 CALM      29.87R
AUSTIN         CLOUDY    70  70 100 CALM      29.89S VSB 1/4
ALBERT LEA     CLOUDY    72  72 100 CALM      29.89F VSB<1/4
DODGE CENTER   FOG       72  72 100 W5        29.90S VSB 1/4
PRESTON        MOCLDY    70  70 100 SW5       29.89F FOG
OWATONNA       CLOUDY    73  72  94 NW5       29.90S FOG
FARIBAULT      CLOUDY    73  70  88 CALM      29.91R HAZE
$$

...ELSEWHERE IN MINNESOTA...


CITY           SKY/WX    TMP DP  RH WIND       PRES   REMARKS
MINNEAPOLIS    CLOUDY    72  71  97 NW6       29.89R
INTNL FALLS    CLOUDY    64  60  87 E5        29.95R
DULUTH         DRZL/FOG  63  61  93 SE5       29.93R VSB 1/2
RED WING       CLOUDY    73  72  94 NW7       29.87R FOG
REDWOOD FALLS  FOG       71  70  96 CALM      29.91R VSB 1/2
MANKATO        CLOUDY    72  66  83 NE3       29.91R VSB 1/4
WORTHINGTON    CLEAR     64   9  11 NW3       29.94S
FAIRMONT       CLOUDY    66  63  88 MISG      29.90S
$$

...SOUTHWEST WISCONSIN...


CITY           SKY/WX    TMP DP  RH WIND       PRES   REMARKS
LA CROSSE      CLOUDY    74  71  91 S6        29.87R
PRAIRIE DU CHI CLOUDY    71  69  94 E3        29.87F FOG
BOSCOBEL       CLOUDY    69  67  93 CALM      29.89S FOG
LONE ROCK      FOG       72  68  87 E3        29.90S VSB 1/2
PLATTEVILLE    CLOUDY    71  69  96 E6        29.91F VSB 1/4
FORT MC COY    PTCLDY    65  64  97 CALM      29.90R
CAMP DOUGLAS   FOG       68  68 100 E5        29.91R VSB 1
VIROQUA        PTSUNNY   70  70 100 CALM      29.91S
WIS DELLS      CLOUDY    70  69  95 CALM      29.92R FOG
$$

...ELSEWHERE IN WISCONSIN...


CITY           SKY/WX    TMP DP  RH WIND       PRES   REMARKS
MILWAUKEE      FOG       71  69  93 SW5       29.94R VSB 1/4
MADISON        CLOUDY    73  72  96 S5        29.91R FOG
GREEN BAY      CLOUDY    66  66 100 CALM      29.92R FOG
EAU CLAIRE     CLOUDY    71  70  96 CALM      29.87R
BLACK RVR FLS  CLOUDY    66  66 100 CALM      29.88R VSB 1
MEDFORD        FOG       65  65 100 SE5       29.92R VSB 1/2
WAUSAU         FOG       65  65 100 E5        29.91R VSB 1/4
WIS RAPIDS     CLOUDY    70  70 100 SE5       29.92R FOG
MARSHFIELD     FOG       70  68  93 SE3       29.92R VSB 1/4
RICE LAKE      CLOUDY    71  69  95 CALM      29.89R FOG
$$

...NORTHEAST IOWA...


CITY           SKY/WX    TMP DP  RH WIND       PRES   REMARKS
WATERLOO       CLOUDY    70  69  97 NE5       29.86F FOG
DUBUQUE        PTCLDY    72  71  97 CALM      29.90F
DECORAH        FOG       70  70 100 S3        29.88F VSB 1/2
MASON CITY     CLOUDY    72  71  97 W5        29.90F FOG
CHARLES CITY   FOG       70  70 100 CALM      29.90R VSB 1
OELWEIN        CLOUDY    70  70 100 E5        29.90S FOG
$$

...ELSEWHERE IN IOWA...


CITY           SKY/WX    TMP DP  RH WIND       PRES   REMARKS
DES MOINES     TSTM      74  70  87 CALM      29.82F
IOWA CITY      FOG       72  72 100 S3        29.87F VSB 1/4
FORT DODGE     CLOUDY    72  70  94 CALM      29.88F
MARSHALLTOWN   LGT RAIN  75  73  93 W5        29.86F
CEDAR RAPIDS   CLOUDY    73  73 100 E5        29.85F FOG
$$

...NORTHERN ILLINOIS...


CITY           SKY/WX    TMP DP  RH WIND       PRES   REMARKS
CHICAGO-OHARE  MOCLDY    73  69  87 SW10      29.91R
DUPAGE         CLOUDY    74  72  93 VRB3      29.91F
CHICAGO-MIDWAY LGT RAIN  74  72  93 SW10      29.92R
MOLINE         CLOUDY    76  72  87 W3        29.88R
ROCKFORD       PTCLDY    73  71  93 E5        29.91F FOG
STERLING       PTCLDY    72  70  94 S3        29.89F
PEORIA         TSTM      77  73  87 N9G23     29.96R FOG
$$

NOTE: "FAIR" INDICATES FEW OR NO CLOUDS BELOW 12,000 FEET WITH NO
SIGNIFICANT WEATHER AND/OR OBSTRUCTIONS TO VISIBILITY. WIND
SPEEDS ARE IN MILES-PER-HOUR.



USA.gov is the U.S. government's official web portal to all federal, state and local government web resources and services.